WetterOnline ( http://www.wetteronline.de )

Wetter aktuell Aachen

Aktuelles Wetter: Aachen-Orsbach (231m)

6-stündlich | Neueste Meldungen
Ortszeit Temperatur Wetter
So, 19.08. 2:00 15.3° C wolkig
Sa, 18.08. 20:00 20.4° C leicht bewölkt
Sa, 18.08. 14:00 21.5° C wolkig
Sa, 18.08. 8:00 13.6° C wolkig
Sa, 18.08. 2:00 14.0° C wolkig
Fr, 17.08. 20:00 20.4° C wolkig
Fr, 17.08. 14:00 17.5° C bedeckt
Fr, 17.08. 8:00 15.5° C Regen
Ortszeit Temperatur Wetter
So, 19.08. 4:00 14.7° C bedeckt
So, 19.08. 3:50 14.7° C bedeckt
So, 19.08. 3:40 14.8° C wolkig
So, 19.08. 3:30 15.0° C leicht bewölkt
So, 19.08. 3:20 15.0° C leicht bewölkt
So, 19.08. 3:10 14.9° C leicht bewölkt
So, 19.08. 3:00 15.2° C fast wolkenlos
So, 19.08. 2:30 14.8° C bedeckt
So, 19.08. 2:00 15.3° C wolkig
So, 19.08. 1:30 15.4° C wolkig
So, 19.08. 1:00 15.7° C wolkig
Ortszeit Relative Feuchte Sichtweite
So, 19.08. 2:00 86% 26 km
Sa, 18.08. 20:00 63% 40 km
Sa, 18.08. 14:00 55% 60 km
Sa, 18.08. 8:00 86% 30 km
Sa, 18.08. 2:00 84% 45 km
Fr, 17.08. 20:00 52% 60 km
Fr, 17.08. 14:00 88% 23 km
Fr, 17.08. 8:00 100% 2.8 km
Ortszeit Relative Feuchte Sichtweite
So, 19.08. 4:00 88% 27 km
So, 19.08. 3:50 88% -
So, 19.08. 3:40 88% -
So, 19.08. 3:30 87% 29 km
So, 19.08. 3:20 87% -
So, 19.08. 3:10 87% -
So, 19.08. 3:00 86% 29 km
So, 19.08. 2:30 88% 27 km
So, 19.08. 2:00 86% 26 km
So, 19.08. 1:30 86% 27 km
So, 19.08. 1:00 85% 30 km
Ortszeit Niederschlagsmenge Niederschlagsart
So, 19.08. 2:00 0.0 l/m2 in 6 Std. -
Sa, 18.08. 20:00 0.0 l/m2 in 12 Std. -
Sa, 18.08. 14:00 0.0 l/m2 in 6 Std. -
Sa, 18.08. 8:00 0.0 l/m2 in 12 Std. -
Sa, 18.08. 2:00 0.0 l/m2 in 6 Std. -
Fr, 17.08. 20:00 1 l/m2 in 12 Std. -
Fr, 17.08. 14:00 1 l/m2 in 6 Std. Regen
Fr, 17.08. 8:00 12 l/m2 in 12 Std. Regen
Ortszeit Niederschlagsmenge Niederschlagsart
So, 19.08. 4:00 0.0 l/m2 in 1 Std. -
So, 19.08. 3:50 keine Meldung -
So, 19.08. 3:40 keine Meldung -
So, 19.08. 3:30 0.0 l/m2 in 1 Std. -
So, 19.08. 3:20 keine Meldung -
So, 19.08. 3:10 keine Meldung -
So, 19.08. 3:00 0.0 l/m2 in 1 Std. -
So, 19.08. 2:30 0.0 l/m2 in 1 Std. -
So, 19.08. 2:00 0.0 l/m2 in 1 Std. -
So, 19.08. 1:30 0.0 l/m2 in 1 Std. -
So, 19.08. 1:00 0.0 l/m2 in 1 Std. -
Ortszeit Stärke Spitze Richtung
km/h Bft. km/h Grad Sektor
So, 19.08. 2:00 11 2 14 210° SW
Sa, 18.08. 20:00 15 3 30 300° NW
Sa, 18.08. 14:00 18 3 29 260° W
Sa, 18.08. 8:00 9 2 13 220° SW
Sa, 18.08. 2:00 6 1 15 250° W
Fr, 17.08. 20:00 6 1 26 20° N
Fr, 17.08. 14:00 11 2 22 300° NW
Fr, 17.08. 8:00 7 2 29 350° N
Ortszeit Stärke Spitze Richtung
km/h Bft. km/h Grad Sektor
So, 19.08. 4:00 11 2 15 220° SW
So, 19.08. 3:50 11 2 - 220° SW
So, 19.08. 3:40 11 2 - 210° SW
So, 19.08. 3:30 11 2 14 210° SW
So, 19.08. 3:20 11 2 - 210° SW
So, 19.08. 3:10 11 2 - 210° SW
So, 19.08. 3:00 11 2 14 210° SW
So, 19.08. 2:30 9 2 13 220° SW
So, 19.08. 2:00 11 2 11 210° SW
So, 19.08. 1:30 9 2 11 220° SW
So, 19.08. 1:00 9 2 11 210° SW
Ortszeit Untergrenze Bedeckung Gattung
total tief tief mittel hoch
So, 19.08. 2:00 9000 m 8/8 0/8 - - -
Sa, 18.08. 20:00 9000 m 7/8 0/8 - - -
Sa, 18.08. 14:00 1200 m 8/8 4/8 - - -
Sa, 18.08. 8:00 - 8/8 - - - -
Sa, 18.08. 2:00 1500 m 8/8 3/8 - - -
Fr, 17.08. 20:00 1500 m 5/8 5/8 - - -
Fr, 17.08. 14:00 300 m 8/8 8/8 - - -
Fr, 17.08. 8:00 90 m 7/8 7/8 - - -
Ortszeit Bedeckungsgrad in Achtel und Wolkenuntergrenze
So, 19.08. 4:00 8
So, 19.08. 3:50 9 9 9
So, 19.08. 3:40 7(12000m)
So, 19.08. 3:30 5(12000m)
So, 19.08. 3:20 5(12000m)
So, 19.08. 3:10 1(3000m) 3(12000m)
So, 19.08. 3:00 1(3000m)
So, 19.08. 2:30 2(3000m) 3(10500m) 9
So, 19.08. 2:00 1(9000m) 8(10500m)
So, 19.08. 1:30 7(9000m) 8(9000m) 8(10500m)
So, 19.08. 1:00 8(9000m)
Ortszeit Luftdruck NN (hPa) Tendenz (hPa in 3 Std.)
So, 19.08. 2:00 1023 + 0,3
Sa, 18.08. 20:00 1022 + 0,1
Sa, 18.08. 14:00 1023 - 0,3
Sa, 18.08. 8:00 1023 + 0,5
Sa, 18.08. 2:00 1022 + 0,7
Fr, 17.08. 20:00 1019 + 0,2
Fr, 17.08. 14:00 1019 + 1,0
Fr, 17.08. 8:00 1017 + 1,5
Ortszeit Luftdruck NN (hPa) Tendenz (hPa in 3 Std.)
So, 19.08. 4:00 1023 - 0,7
So, 19.08. 3:50 1023 keine Meldung
So, 19.08. 3:40 1023 keine Meldung
So, 19.08. 3:30 1023 - 0,7
So, 19.08. 3:20 1023 keine Meldung
So, 19.08. 3:10 1023 keine Meldung
So, 19.08. 3:00 1023 - 0,4
So, 19.08. 2:30 1023 0,0
So, 19.08. 2:00 1023 + 0,3
So, 19.08. 1:30 1024 + 0,4
So, 19.08. 1:00 1023 + 0,4
Ortszeit Schneehöhe (cm)
So, 19.08. 2:00 -
Sa, 18.08. 20:00 -
Sa, 18.08. 14:00 -
Sa, 18.08. 8:00 -
Sa, 18.08. 2:00 -
Fr, 17.08. 20:00 -
Fr, 17.08. 14:00 -
Fr, 17.08. 8:00 -
Ortszeit Schneehöhe (cm)
So, 19.08. 4:00 -
So, 19.08. 3:50 -
So, 19.08. 3:40 -
So, 19.08. 3:30 -
So, 19.08. 3:20 -
So, 19.08. 3:10 -
So, 19.08. 3:00 -
So, 19.08. 2:30 -
So, 19.08. 2:00 -
So, 19.08. 1:30 -
So, 19.08. 1:00 -
Link zu dieser Seite / Seite empfehlen

Das Wetter in ...